Location: Campillo
(40.8621°N, 4.2488°W)
Time: 06:26:42
(UTC+00:00)

USA 306 - Pass Details

Date: 03 October 2021
Orbit: 564 x 573 km, 54.0° (Epoch: 24 September)

Event Time Altitude Azimuth Distance (km) Brightness Sun altitude
Rises 19:20:15 0° 308° (NW) 2,760 7.5 -16.8°
Reaches altitude 10° 19:22:30 10° 305° (NW) 1,862 6.5 -17.2°
Maximum altitude 19:26:41 62° 224° (SW) 636 3.2 -18.0°
Enters shadow 19:28:47 28° 152° (SSE) 1,085 4.0 -18.4°
